Total_Precipitation_Accumulation
0.74 0.95 1.38 1.91 2.39 1.70 1.02 0.74 0.50 0.44 0.37 0.30 0.26 0.26 0.34 0.46 0.69 1.18 1.13 0.76 0.51 0.51 0.61 0.83 1.01 0.97 0.90 0.85 0.88 0.98 1.13 1.26 1.22 1.15 1.00 0.80 0.70 0.61 0.63 0.61 0.59 0.55 0.46 0.51 0.55 0.54 0.53 0.48 0.43
0.74 1.42 1.94 2.65 2.31 1.27 1.00 0.74 0.65 0.42 0.31 0.25 0.19 0.22 0.29 0.27 0.27 0.63 1.08 0.95 0.47 0.39 0.45 0.58 0.80 0.88 0.88 0.90 0.97 1.02 1.09 1.10 1.03 0.93 0.78 0.69 0.66 0.63 0.58 0.61 0.63 0.58 0.51 0.54 0.57 0.65 0.58 0.49 0.42
0.86 1.66 2.25 2.45 1.53 1.02 0.97 0.70 0.60 0.40 0.32 0.26 0.19 0.19 0.25 0.35 0.41 0.70 0.93 0.59 0.40 0.36 0.47 0.62 0.80 0.85 0.87 0.88 0.95 0.99 0.98 0.92 0.87 0.83 0.74 0.68 0.65 0.65 0.65 0.64 0.66 0.62 0.54 0.51 0.59 0.64 0.57 0.51 0.42
1.24 2.02 2.28 1.79 1.14 0.74 0.65 0.64 0.50 0.41 0.29 0.20 0.17 0.23 0.28 0.38 0.49 0.63 0.59 0.41 0.40 0.43 0.55 0.61 0.79 0.82 0.78 0.87 0.90 0.88 0.77 0.71 0.76 0.78 0.72 0.69 0.64 0.65 0.67 0.66 0.61 0.55 0.51 0.53 0.60 0.62 0.57 0.54 0.44
1.61 2.21 2.11 1.45 1.01 0.72 0.58 0.53 0.46 0.41 0.35 0.27 0.18 0.30 0.50 0.54 0.55 0.51 0.47 0.43 0.46 0.57 0.71 0.65 0.79 0.77 0.72 0.80 0.88 0.85 0.85 0.81 0.83 0.84 0.79 0.77 0.70 0.68 0.70 0.64 0.53 0.48 0.51 0.57 0.72 0.71 0.54 0.49 0.46
2.04 2.18 2.26 1.57 1.09 0.80 0.71 0.53 0.44 0.39 0.33 0.28 0.22 0.32 0.54 0.60 0.65 0.61 0.57 0.59 0.60 0.60 0.66 0.68 0.82 0.78 0.72 0.77 0.81 0.76 0.80 0.91 0.93 0.86 0.84 1.01 0.85 0.71 0.64 0.59 0.53 0.50 0.50 0.57 0.69 0.71 0.55 0.48 0.51
2.17 2.24 1.89 1.32 1.11 1.14 0.86 0.51 0.46 0.45 0.41 0.32 0.25 0.39 0.55 0.63 0.55 0.51 0.53 0.55 0.55 0.55 0.57 0.60 0.67 0.72 0.73 0.80 0.88 0.87 0.90 0.98 1.02 0.88 0.88 0.96 0.74 0.59 0.54 0.54 0.53 0.53 0.58 0.63 0.66 0.70 0.62 0.58 0.59
1.50 1.60 1.48 1.27 1.19 1.14 0.80 0.47 0.38 0.36 0.39 0.28 0.26 0.39 0.64 0.64 0.47 0.48 0.52 0.55 0.58 0.60 0.62 0.59 0.63 0.75 0.85 0.85 0.87 0.97 1.02 0.99 1.03 0.91 0.89 0.85 0.61 0.50 0.52 0.48 0.46 0.48 0.55 0.64 0.68 0.70 0.66 0.62 0.61
1.40 1.52 1.59 1.50 1.19 0.95 0.74 0.54 0.37 0.29 0.31 0.27 0.23 0.25 0.34 0.41 0.43 0.53 0.61 0.60 0.64 0.64 0.66 0.63 0.56 0.57 0.71 0.85 0.79 1.00 1.10 1.06 0.98 0.94 0.94 0.84 0.57 0.50 0.51 0.48 0.55 0.56 0.64 0.71 0.73 0.71 0.63 0.58 0.52
1.38 1.55 1.55 1.17 0.89 0.73 0.65 0.56 0.46 0.43 0.45 0.36 0.29 0.26 0.28 0.36 0.45 0.50 0.51 0.56 0.59 0.59 0.53 0.54 0.52 0.50 0.52 0.60 0.87 1.23 1.08 0.98 0.81 0.84 0.81 0.81 0.75 0.70 0.55 0.56 0.70 0.73 0.75 0.76 0.76 0.73 0.60 0.46 0.38
1.14 1.12 1.02 1.00 0.71 0.52 0.54 0.54 0.44 0.44 0.49 0.36 0.34 0.30 0.29 0.33 0.39 0.40 0.42 0.45 0.49 0.52 0.50 0.47 0.44 0.44 0.47 0.61 0.73 0.95 1.03 1.01 0.88 0.76 0.76 0.84 0.79 0.69 0.59 0.53 0.58 0.67 0.71 0.65 0.66 0.64 0.48 0.43 0.46
1.00 0.86 0.74 0.69 0.54 0.49 0.56 0.48 0.40 0.42 0.40 0.26 0.23 0.27 0.35 0.39 0.38 0.35 0.39 0.48 0.53 0.54 0.54 0.54 0.46 0.45 0.48 0.52 0.52 0.61 0.68 0.73 0.72 0.64 0.65 0.78 0.73 0.68 0.67 0.66 0.63 0.63 0.65 0.71 0.67 0.63 0.55 0.50 0.52
0.87 0.76 0.60 0.48 0.52 0.50 0.47 0.44 0.40 0.38 0.30 0.27 0.26 0.34 0.39 0.39 0.37 0.37 0.38 0.43 0.50 0.52 0.54 0.54 0.51 0.48 0.47 0.49 0.48 0.46 0.56 0.60 0.62 0.65 0.62 0.65 0.69 0.68 0.67 0.64 0.71 0.72 0.70 0.73 0.70 0.61 0.56 0.54 0.51
0.80 0.71 0.65 0.51 0.50 0.52 0.47 0.42 0.43 0.44 0.32 0.29 0.28 0.33 0.35 0.37 0.39 0.39 0.40 0.45 0.48 0.49 0.55 0.56 0.55 0.57 0.56 0.54 0.52 0.51 0.57 0.63 0.61 0.54 0.52 0.58 0.59 0.61 0.71 0.76 0.78 0.79 0.79 0.85 0.83 0.65 0.64 0.65 0.59
0.67 0.71 0.68 0.57 0.54 0.56 0.53 0.60 0.51 0.49 0.39 0.40 0.32 0.29 0.31 0.32 0.32 0.37 0.39 0.43 0.48 0.54 0.62 0.60 0.60 0.69 0.69 0.65 0.66 0.59 0.63 0.64 0.62 0.62 0.61 0.65 0.66 0.68 0.77 0.86 0.89 0.87 0.85 0.87 1.09 0.98 0.74 0.69 0.64
0.75 0.81 0.94 0.63 0.56 0.64 0.70 0.73 0.49 0.49 0.46 0.47 0.38 0.33 0.31 0.32 0.32 0.31 0.32 0.39 0.45 0.57 0.67 0.77 0.69 0.74 0.76 0.76 0.78 0.75 0.74 0.76 0.71 0.70 0.73 0.73 0.77 0.80 0.89 0.94 0.85 0.92 0.99 1.02 1.17 1.24 0.94 0.76 0.74
0.85 0.86 0.85 0.67 0.52 0.61 0.66 0.63 0.48 0.43 0.39 0.37 0.35 0.35 0.34 0.29 0.30 0.27 0.28 0.33 0.40 0.56 0.68 0.82 0.83 0.79 0.84 0.89 0.93 0.92 0.88 0.89 0.87 0.87 0.83 0.85 0.89 0.96 1.02 1.04 0.99 0.99 1.01 1.11 1.11 1.32 1.27 1.06 0.93
0.83 0.70 0.64 0.59 0.55 0.60 0.59 0.47 0.42 0.37 0.33 0.30 0.30 0.31 0.30 0.26 0.27 0.26 0.23 0.25 0.32 0.48 0.62 0.77 0.89 1.00 1.06 1.09 1.14 1.17 1.11 1.05 1.08 1.11 1.08 1.09 1.14 1.11 1.17 1.20 1.22 1.29 1.27 1.25 1.19 1.36 1.46 1.25 1.19
0.63 0.57 0.54 0.47 0.48 0.49 0.44 0.37 0.38 0.35 0.33 0.28 0.25 0.26 0.23 0.20 0.25 0.25 0.19 0.21 0.28 0.39 0.50 0.68 1.03 1.45 1.62 1.51 1.45 1.53 1.64 1.64 1.55 1.52 1.49 1.55 1.55 1.55 1.58 1.55 1.53 1.49 1.44 1.50 1.50 1.72 2.04 1.59 1.37
0.59 0.61 0.58 0.49 0.38 0.37 0.36 0.31 0.30 0.29 0.30 0.26 0.23 0.24 0.23 0.21 0.20 0.18 0.14 0.16 0.23 0.41 0.55 0.68 0.98 1.42 1.60 1.70 1.82 2.04 2.23 2.13 2.00 1.98 1.93 2.00 2.02 2.19 2.15 2.13 2.10 2.01 1.99 1.97 1.90 1.97 2.24 1.91 1.70
0.58 0.58 0.54 0.47 0.36 0.31 0.28 0.27 0.24 0.25 0.25 0.23 0.23 0.24 0.22 0.19 0.18 0.18 0.15 0.18 0.23 0.34 0.46 0.61 0.80 1.08 1.42 1.69 1.96 2.24 2.48 2.48 2.37 2.20 2.17 2.23 2.29 2.45 2.59 2.58 2.61 2.43 2.29 2.29 2.23 2.17 2.27 2.32 2.10
0.53 0.40 0.36 0.34 0.40 0.39 0.30 0.39 0.27 0.26 0.26 0.26 0.26 0.24 0.22 0.21 0.21 0.23 0.20 0.21 0.24 0.30 0.38 0.50 0.68 0.92 1.17 1.42 1.83 2.28 2.60 2.71 2.63 2.52 2.47 2.43 2.45 2.51 2.72 2.75 2.86 2.69 2.56 2.51 2.43 2.24 2.33 2.60 2.52
0.38 0.32 0.32 0.33 0.37 0.32 0.24 0.30 0.28 0.25 0.27 0.28 0.27 0.25 0.23 0.21 0.24 0.27 0.27 0.28 0.31 0.31 0.36 0.46 0.59 0.82 1.07 1.29 1.65 2.08 2.38 2.62 2.78 2.61 2.48 2.50 2.53 2.56 2.68 2.82 2.93 2.79 2.65 2.58 2.68 2.55 2.49 2.42 2.39
0.31 0.30 0.29 0.28 0.33 0.35 0.19 0.28 0.37 0.27 0.24 0.25 0.22 0.21 0.22 0.24 0.29 0.34 0.42 0.46 0.47 0.40 0.42 0.50 0.58 0.73 0.88 1.02 1.25 1.50 1.85 2.15 2.51 2.50 2.43 2.55 2.54 2.47 2.40 2.56 2.80 2.73 2.71 2.71 2.78 2.81 2.75 2.73 2.73
0.27 0.36 0.44 0.43 0.44 0.31 0.16 0.28 0.41 0.31 0.24 0.24 0.23 0.23 0.24 0.27 0.32 0.40 0.54 0.59 0.61 0.53 0.46 0.47 0.57 0.64 0.70 0.80 0.93 1.10 1.37 1.56 1.95 2.26 2.25 2.17 2.23 2.29 2.35 2.39 2.40 2.40 2.48 2.62 2.85 2.81 2.70 2.69 2.78
0.22 0.35 0.51 0.54 0.49 0.35 0.28 0.45 0.50 0.37 0.28 0.26 0.24 0.26 0.30 0.34 0.40 0.57 0.72 0.73 0.74 0.65 0.55 0.53 0.62 0.66 0.68 0.72 0.75 0.86 1.02 1.15 1.32 1.55 1.67 1.71 1.78 2.01 2.12 2.24 2.22 2.24 2.31 2.39 2.51 2.55 2.56 2.53 2.51
0.19 0.23 0.26 0.38 0.37 0.39 0.43 0.54 0.49 0.32 0.30 0.31 0.32 0.35 0.45 0.53 0.59 0.72 0.86 0.87 0.79 0.72 0.64 0.61 0.65 0.74 0.75 0.74 0.76 0.87 0.92 0.95 1.07 1.11 1.26 1.45 1.50 1.56 1.71 1.83 1.94 2.06 2.11 2.19 2.34 2.41 2.40 2.42 2.41
0.13 0.18 0.29 0.43 0.52 0.52 0.47 0.53 0.52 0.41 0.41 0.39 0.44 0.50 0.61 0.70 0.76 0.85 1.00 1.01 0.86 0.74 0.64 0.61 0.64 0.76 0.94 1.05 1.01 0.96 1.03 1.10 1.32 1.35 1.20 1.19 1.38 1.46 1.51 1.57 1.66 1.82 1.95 2.04 2.12 2.23 2.33 2.33 2.33
0.18 0.27 0.37 0.49 0.51 0.66 0.74 0.71 0.61 0.59 0.59 0.61 0.64 0.70 0.77 0.89 0.89 0.86 0.94 1.02 0.91 0.72 0.63 0.58 0.59 0.70 0.84 0.88 0.94 0.93 0.98 1.08 1.36 1.58 1.52 1.34 1.36 1.40 1.37 1.33 1.42 1.57 1.70 1.81 1.94 2.00 2.01 2.03 2.17
0.27 0.38 0.56 0.80 0.75 0.69 0.83 0.84 0.67 0.60 0.64 0.66 0.65 0.64 0.69 0.80 0.82 0.83 0.86 0.83 0.74 0.59 0.50 0.48 0.49 0.60 0.71 0.71 0.77 0.85 0.86 0.96 1.08 1.20 1.22 1.16 1.09 1.07 1.14 1.19 1.22 1.31 1.48 1.60 1.65 1.67 1.70 1.77 1.90